Forside
METAR-TAF:

METAR-TAF

Lufthavne :

Clinton Municipal Airport

Clinton, Iowa, USA

Breddekreds: 41-50N, længdekreds: 090-20W, højde: 216 m

Aktuelle vejr

Denne rapport blev lavet for 17 minutter siden, kl. 01:56 UTC
Vind 5 kt fra nordnordvest
Temperatur 14°C
Fugtighed 67%
Tryk 1015 hPa
Sigt: 16.1 km
Brudte skyer i en højde af 8000 ft

METAR: KCWI 220156Z AUTO 33005KT 10SM BKN080 14/08 A2996 RMK AO2 SLP147 T01440078

Tid: 21:13 (02:13 UTC)


TAF: fraværende

Vejrobservationer og prognoser fra mere end 4000 lufthavne (METAR og TAF).

De gule og røde prikker repræsenterer de meteorologiske stationer.

Flyt musen over at se navnet på stationen.

Så klik over at se vejr observationer og prognoser.

At skifte det kort: Klik på de grønne knapper med et sort kors for at zoome ind; på den grønne knap med en bindestreg for at zoome ud; eller på de grønne pile for tilstødende kort.


METAR-TAF: